Regional Weather Roundup
Issued by NWS Newport/Morehead, NC

Current Version | Previous Version | Text Only | Print | Product List | Glossary Off
Versions: 1 2 3 4 5 6 7 8 9 10 11 12 13 14 15 16 17 18 19 20 21 22 23 24 25 26 27 28 29 30 31 32 33 34 35 36 37 38 39 40 41 42 43 44 45 46 47 48 49 50
000 ASUS42 KMHX 300213 RWRMHX WEATHER ROUNDUP FOR EASTERN NORTH CAROLINA NATIONAL WEATHER SERVICE NEWPORT/MOREHEAD CITY NC 1000 PM EDT MON MAY 29 2017 NOTE: "FAIR" INDICATES FEW OR NO CLOUDS BELOW 12,000 FEET WITH NO SIGNIFICANT WEATHER AND/OR OBSTRUCTIONS TO VISIBILITY NCZ015>017-031-032-045>047-102-103-300300- NORTH COAST CITY SKY/WX TMP DP RH WIND PRES REMARKS EDENTON CLEAR 76 71 86 CALM 30.02R ELIZABETH CITY CLOUDY 72 70 93 E7 30.03R KITTY HAWK PTCLDY 69 67 93 E5 30.03R MANTEO CLOUDY 70 66 85 SE10 30.03S $$ NCZ045>047-081-094-103-104-300300- CENTRAL COAST CITY SKY/WX TMP DP RH WIND PRES REMARKS FRISCO CLOUDY 75 71 87 E7 30.04R $$ NCZ095-097-098-100-101-300300- SOUTHERN COAST CITY SKY/WX TMP DP RH WIND PRES REMARKS BEAUFORT CLEAR 77 74 90 S7 30.02R CEDAR ISLAND NOT AVBL JACKSONVILLE CLEAR 76 73 91 S3 30.00R PINEY ISLAND PTCLDY N/A N/A N/A S6 30.01R WILMINGTON CLEAR 77 69 76 S9 30.01R $$ NCZ011>013-027>030-043-044-078>080-089-090>093-098-300300- COASTAL PLAIN CITY SKY/WX TMP DP RH WIND PRES REMARKS AHOSKIE NOT AVBL CLINTON PTCLDY 77 71 82 CALM 30.01R ELIZABETHTOWN PTCLDY 78 71 78 S5 30.01R GOLDSBORO MOCLDY 78 69 73 CALM 29.99R GREENVILLE CLOUDY 73 72 94 CALM 30.01R HAVELOCK NOT AVBL KENANSVILLE CLEAR 75 70 83 CALM 29.99R KINSTON CLOUDY 79 70 73 CALM 30.01R NEW BERN CLEAR 74 67 78 SE5 30.01R RICHLANDS PTCLDY 74 69 85 S3 30.01R ROCKY MOUNT PTCLDY 75 69 81 CALM 30.00R WASHINGTON CLOUDY 77 71 79 SE5 30.00R WHITEVILLE CLOUDY 78 72 82 S5 30.00R $$ AMZ130-135-150-152-154-156-158-170-250-252-270-ANZ085-086-088-633-658-670-300300- MARINE OBSERVATIONS STATION/POSITION TIME TEMP WIND PRES WAVE SWELL AIR SEA DIR/SP/G HT/PER HT/PER (UTC) (F) (DEG/KT/KT) (MB) (FT/S) (FT/S) CHESAPEAKE LIGHT NOT AVBL 64 E VA BEACH 0150 64 64 90/ 6/ 8 1018.4 3/ 6 2/ 6 DUCK 0148 69 70 110/ 11/ 14 1016.6 2 E DUCK 0200 69 N/A 3/ 9 OREGON INLET 0148 100/ 8/ 12 1016.9 13E OREGON INLT 0148 67 N/A 3/ 7 2/ 7 HATTERAS CG 0148 77 77 110/ 4/ 5 1016.8 DIAMOND BUOY 0150 78 77 200/ 4/ 6 1017.1 2/ 6 2/ 6 CAPE LOOKOUT 0200 76 210/ 5/ 7 1016.3 BEAUFORT LAB 0148 78 77 190/ 8/ 9 1015.7 30 SE NEW RVR IN 0108 78 78 240/ 12/ 14 1016.1 30 SE NEW RVR IN 0143 77 N/A 3/ 6 27 SE WRIGHTSVLE 0108 77 78 210/ 10/ 14 1016.1 5 SE WRIGHTSVLE 0108 78 77 220/ 8/ 12 1016.0 225 S CAPE HAT 0150 78 78 240/ 6/ 8 1018.3 3/ 6 3/ 6 41 SE CHARLESTON 0150 78 77 200/ 10/ 10 1016.3 2/ 5 2/ 5 $$

USA.gov is the U.S. government's official web portal to all federal, state and local government web resources and services.